Time,TemperatureF,DewpointF,PressureIn,WindDirection,WindDirectionDegrees,WindSpeedMPH,WindSpeedGustMPH,Humidity,HourlyPrecipIn,Conditions,Clouds,dailyrainin,SoftwareType,DateUTC
2013-03-31 00:02:00,48.8,39.8,30.06,South,183,0.0,0.0,71,0.00,SCT,,0.00,WeatherDisplay:10.37,2013-03-31 04:02:00,
2013-03-31 00:17:00,49.2,39.8,30.05,South,183,0.0,1.0,70,0.00,SCT,,0.00,WeatherDisplay:10.37,2013-03-31 04:17:00,
2013-03-31 00:32:00,49.6,40.6,30.04,South,183,0.0,0.0,71,0.00,SCT,,0.00,WeatherDisplay:10.37,2013-03-31 04:32:00,
2013-03-31 00:47:00,49.9,40.5,30.03,South,183,0.0,1.0,70,0.00,SCT,,0.00,WeatherDisplay:10.37,2013-03-31 04:47:00,
2013-03-31 01:02:00,50.8,41.0,30.02,ESE,116,0.0,2.0,69,0.00,SCT,,0.00,WeatherDisplay:10.37,2013-03-31 05:02:00,
2013-03-31 01:17:00,51.7,40.7,30.02,ESE,116,0.0,2.0,66,0.00,SCT,,0.00,WeatherDisplay:10.37,2013-03-31 05:17:00,
2013-03-31 01:32:00,52.0,41.0,30.02,SSW,196,0.0,4.0,66,0.00,SCT,,0.00,WeatherDisplay:10.37,2013-03-31 05:32:00,
2013-03-31 01:47:00,51.3,41.5,30.00,SSW,196,0.0,2.0,69,0.00,SCT,,0.00,WeatherDisplay:10.37,2013-03-31 05:47:00,
2013-03-31 02:02:00,50.5,41.1,30.00,SSW,196,0.0,2.0,70,0.00,SCT,,0.00,WeatherDisplay:10.37,2013-03-31 06:02:00,
2013-03-31 02:17:00,50.1,41.4,30.00,SSW,196,0.0,2.0,72,0.00,SCT,,0.00,WeatherDisplay:10.37,2013-03-31 06:17:00,
2013-03-31 02:32:00,49.8,41.8,29.99,SSW,196,0.0,2.0,74,0.00,SCT,,0.00,WeatherDisplay:10.37,2013-03-31 06:32:00,
2013-03-31 02:47:00,50.4,42.4,29.99,South,183,0.0,4.0,74,0.00,SCT,,0.00,WeatherDisplay:10.37,2013-03-31 06:47:00,
2013-03-31 03:02:00,50.4,42.7,29.98,SSE,165,0.0,4.0,75,0.00,SCT,,0.00,WeatherDisplay:10.37,2013-03-31 07:02:00,
2013-03-31 03:17:00,50.4,42.8,29.97,SSE,164,0.0,2.0,75,0.00,SCT,,0.00,WeatherDisplay:10.37,2013-03-31 07:17:00,
2013-03-31 03:32:00,50.8,43.2,29.96,South,188,1.0,4.0,75,0.00,SCT,,0.00,WeatherDisplay:10.37,2013-03-31 07:32:00,
2013-03-31 03:47:00,51.1,43.4,29.95,South,178,0.0,4.0,75,0.00,SCT,,0.00,WeatherDisplay:10.37,2013-03-31 07:47:00,
2013-03-31 04:02:00,51.3,43.3,29.94,South,171,1.0,3.0,74,0.00,SCT,,0.00,WeatherDisplay:10.37,2013-03-31 08:02:00,
2013-03-31 04:17:00,51.6,43.6,29.95,SSE,167,0.0,7.0,74,0.00,SCT,,0.00,WeatherDisplay:10.37,2013-03-31 08:17:00,
2013-03-31 04:32:00,51.4,43.7,29.95,SSE,166,0.0,6.0,75,0.00,SCT,,0.00,WeatherDisplay:10.37,2013-03-31 08:32:00,
2013-03-31 04:47:00,50.5,44.9,29.96,SSE,166,0.0,3.0,81,0.01,RA,,0.01,WeatherDisplay:10.37,2013-03-31 08:47:00,
2013-03-31 05:02:00,49.5,45.2,29.95,SSE,163,0.0,1.0,85,0.02,RA,,0.03,WeatherDisplay:10.37,2013-03-31 09:02:00,
2013-03-31 05:17:00,48.9,45.8,29.95,SSE,163,0.0,0.0,89,0.03,RA,,0.06,WeatherDisplay:10.37,2013-03-31 09:17:00,
2013-03-31 05:32:00,48.6,45.8,29.94,SSE,163,0.0,2.0,90,0.03,RA,,0.09,WeatherDisplay:10.37,2013-03-31 09:32:00,
2013-03-31 05:47:00,48.5,46.0,29.92,SSE,163,0.0,1.0,91,0.02,RA,,0.11,WeatherDisplay:10.37,2013-03-31 09:47:00,
2013-03-31 06:02:00,48.5,46.3,29.92,SSE,163,0.0,1.0,92,0.02,RA,,0.13,WeatherDisplay:10.37,2013-03-31 10:02:00,
2013-03-31 06:17:00,48.5,46.3,29.91,South,175,0.0,3.0,92,0.03,RA,,0.16,WeatherDisplay:10.37,2013-03-31 10:17:00,
2013-03-31 06:32:00,48.5,46.3,29.90,South,190,0.0,2.0,92,0.01,RA,,0.17,WeatherDisplay:10.37,2013-03-31 10:32:00,
2013-03-31 06:47:00,48.3,46.1,29.90,South,184,1.0,5.0,92,0.02,RA,,0.19,WeatherDisplay:10.37,2013-03-31 10:47:00,
2013-03-31 07:02:00,48.3,46.4,29.90,South,175,2.0,6.0,93,0.01,SCT,,0.20,WeatherDisplay:10.37,2013-03-31 11:02:00,
2013-03-31 07:17:00,48.2,46.3,29.90,South,175,2.0,6.0,93,0.02,RA,,0.22,WeatherDisplay:10.37,2013-03-31 11:17:00,
2013-03-31 07:47:00,48.2,46.3,29.90,SSW,205,1.0,7.0,93,0.02,RA,,0.28,WeatherDisplay:10.37,2013-03-31 11:47:00,
2013-03-31 08:02:00,48.2,46.3,29.90,South,181,1.0,6.0,93,0.01,RA,,0.29,WeatherDisplay:10.37,2013-03-31 12:02:00,
2013-03-31 08:17:00,48.2,46.3,29.90,South,173,1.0,6.0,93,0.00,SCT,,0.29,WeatherDisplay:10.37,2013-03-31 12:17:00,
2013-03-31 08:32:00,48.3,46.4,29.90,South,186,0.0,5.0,93,0.01,SCT,,0.30,WeatherDisplay:10.37,2013-03-31 12:32:00,
2013-03-31 08:47:00,48.6,46.7,29.90,SSW,198,1.0,5.0,93,0.00,SCT,,0.30,WeatherDisplay:10.37,2013-03-31 12:47:00,
2013-03-31 09:02:00,49.1,47.2,29.90,SSE,164,0.0,5.0,93,0.00,SCT,,0.30,WeatherDisplay:10.37,2013-03-31 13:02:00,
2013-03-31 09:17:00,49.6,47.9,29.89,SSW,202,0.0,5.0,94,0.00,SCT,,0.30,WeatherDisplay:10.37,2013-03-31 13:17:00,
2013-03-31 09:32:00,49.9,48.2,29.89,South,180,1.0,4.0,94,0.00,SCT,,0.30,WeatherDisplay:10.37,2013-03-31 13:32:00,
2013-03-31 09:47:00,50.4,48.7,29.88,SSE,164,0.0,4.0,94,0.00,SCT,,0.30,WeatherDisplay:10.37,2013-03-31 13:47:00,
2013-03-31 10:02:00,50.5,48.8,29.87,SSW,195,0.0,7.0,94,0.00,SCT,,0.30,WeatherDisplay:10.37,2013-03-31 14:02:00,
2013-03-31 10:17:00,51.2,49.5,29.88,SSW,195,0.0,4.0,94,0.00,SCT,,0.30,WeatherDisplay:10.37,2013-03-31 14:17:00,
2013-03-31 10:32:00,51.6,49.9,29.88,SSW,196,0.0,3.0,94,0.00,SCT,,0.30,WeatherDisplay:10.37,2013-03-31 14:32:00,
2013-03-31 10:47:00,52.0,50.0,29.88,SSW,196,0.0,2.0,93,0.00,SCT,,0.30,WeatherDisplay:10.37,2013-03-31 14:47:00,
2013-03-31 11:02:00,52.5,50.5,29.88,SSW,199,0.0,2.0,93,0.00,SCT,,0.30,WeatherDisplay:10.37,2013-03-31 15:02:00,
2013-03-31 11:17:00,53.1,51.1,29.88,South,181,0.0,3.0,93,0.00,SCT,,0.30,WeatherDisplay:10.37,2013-03-31 15:17:00,
2013-03-31 11:32:00,53.5,51.2,29.88,ENE,70,0.0,3.0,92,0.00,SCT,,0.30,WeatherDisplay:10.37,2013-03-31 15:32:00,
2013-03-31 11:47:00,53.9,51.6,29.87,SSW,208,0.0,2.0,92,0.00,SCT,,0.30,WeatherDisplay:10.37,2013-03-31 15:47:00,
2013-03-31 12:02:00,54.4,51.9,29.87,South,191,0.0,4.0,91,0.00,SCT,,0.30,WeatherDisplay:10.37,2013-03-31 16:02:00,
2013-03-31 12:17:00,55.3,52.1,29.86,NNE,27,0.0,3.0,89,0.00,SCT,,0.30,WeatherDisplay:10.37,2013-03-31 16:17:00,
2013-03-31 12:32:00,56.6,53.1,29.85,NNW,341,0.0,3.0,88,0.00,SCT,,0.30,WeatherDisplay:10.37,2013-03-31 16:32:00,
2013-03-31 12:47:00,57.9,52.8,29.84,SW,214,1.0,5.0,83,0.00,SCT,,0.30,WeatherDisplay:10.37,2013-03-31 16:47:00,
2013-03-31 13:02:00,58.9,53.1,29.83,WSW,249,1.0,4.0,81,0.00,SCT,,0.30,WeatherDisplay:10.37,2013-03-31 17:02:00,
2013-03-31 13:17:00,59.6,53.1,29.83,NW,320,0.0,3.0,79,0.00,SCT,,0.30,WeatherDisplay:10.37,2013-03-31 17:17:00,
2013-03-31 13:32:00,60.7,53.5,29.83,NE,47,1.0,7.0,77,0.00,SCT,,0.30,WeatherDisplay:10.37,2013-03-31 17:32:00,
2013-03-31 13:47:00,62.1,54.1,29.82,WSW,254,0.0,5.0,75,0.00,SCT,,0.30,WeatherDisplay:10.37,2013-03-31 17:47:00,
2013-03-31 14:32:00,63.2,52.9,29.81,West,262,0.0,7.0,69,0.00,SCT,,0.30,WeatherDisplay:10.37,2013-03-31 18:32:00,
2013-03-31 14:47:00,63.2,53.3,29.80,SE,135,0.0,9.0,70,0.00,SCT,,0.30,WeatherDisplay:10.37,2013-03-31 18:47:00,
2013-03-31 15:02:00,64.5,53.3,29.79,South,181,1.0,5.0,67,0.00,SCT,,0.30,WeatherDisplay:10.37,2013-03-31 19:02:00,
2013-03-31 15:17:00,64.0,52.0,29.80,ESE,122,1.0,5.0,65,0.00,SCT,,0.30,WeatherDisplay:10.37,2013-03-31 19:17:00,
2013-03-31 15:47:00,63.7,52.1,29.82,West,266,1.0,6.0,66,0.00,SCT,,0.30,WeatherDisplay:10.37,2013-03-31 19:47:00,
2013-03-31 16:02:00,62.9,52.2,29.82,ENE,63,0.0,3.0,68,0.00,SCT,,0.30,WeatherDisplay:10.37,2013-03-31 20:02:00,
2013-03-31 16:17:00,63.4,52.7,29.81,SW,218,0.0,2.0,68,0.00,SCT,,0.30,WeatherDisplay:10.37,2013-03-31 20:17:00,
2013-03-31 16:32:00,64.3,51.9,29.79,SW,218,0.0,6.0,64,0.00,SCT,,0.30,WeatherDisplay:10.37,2013-03-31 20:32:00,
2013-03-31 16:47:00,64.3,51.9,29.79,West,278,0.0,4.0,64,0.00,SCT,,0.30,WeatherDisplay:10.37,2013-03-31 20:47:00,
2013-03-31 17:02:00,65.2,51.8,29.78,NW,310,0.0,4.0,62,0.00,SCT,,0.30,WeatherDisplay:10.37,2013-03-31 21:02:00,
2013-03-31 17:17:00,65.6,51.8,29.78,ENE,67,0.0,5.0,61,0.00,SCT,,0.30,WeatherDisplay:10.37,2013-03-31 21:17:00,
2013-03-31 17:47:00,65.5,51.2,29.78,WNW,291,0.0,6.0,60,0.00,SCT,,0.30,WeatherDisplay:10.37,2013-03-31 21:47:00,
2013-03-31 18:02:00,65.3,51.1,29.78,NW,304,0.0,4.0,60,0.00,SCT,,0.30,WeatherDisplay:10.37,2013-03-31 22:02:00,
2013-03-31 18:17:00,64.7,51.4,29.78,West,265,0.0,3.0,62,0.00,SCT,,0.30,WeatherDisplay:10.37,2013-03-31 22:17:00,
2013-03-31 18:32:00,62.3,49.6,29.79,NW,313,1.0,24.0,63,0.15,RA,,0.46,WeatherDisplay:10.37,2013-03-31 22:32:00,
2013-03-31 18:47:00,55.6,50.5,29.80,WNW,293,0.0,8.0,83,0.11,RA,,0.56,WeatherDisplay:10.37,2013-03-31 22:47:00,
2013-03-31 19:02:00,55.1,51.6,29.81,SSW,203,0.0,2.0,88,0.03,RA,,0.59,WeatherDisplay:10.37,2013-03-31 23:02:00,
2013-03-31 19:17:00,55.3,52.1,29.82,SSW,207,0.0,3.0,89,0.02,RA,,0.61,WeatherDisplay:10.37,2013-03-31 23:17:00,
2013-03-31 19:32:00,55.4,52.5,29.83,South,183,0.0,1.0,90,0.09,RA,,0.70,WeatherDisplay:10.37,2013-03-31 23:32:00,
2013-03-31 19:47:00,55.7,53.4,29.83,South,183,0.0,2.0,92,0.05,RA,,0.75,WeatherDisplay:10.37,2013-03-31 23:47:00,
2013-03-31 20:02:00,55.9,53.6,29.82,South,181,1.0,3.0,92,0.03,RA,,0.78,WeatherDisplay:10.37,2013-04-01 00:02:00,
2013-03-31 20:17:00,55.7,53.4,29.82,South,186,0.0,2.0,92,0.01,SCT,,0.79,WeatherDisplay:10.37,2013-04-01 00:17:00,
2013-03-31 20:32:00,55.7,53.4,29.82,South,186,0.0,1.0,92,0.01,RA,,0.80,WeatherDisplay:10.37,2013-04-01 00:32:00,
2013-03-31 20:47:00,55.7,53.4,29.81,South,186,0.0,1.0,92,0.00,SCT,,0.80,WeatherDisplay:10.37,2013-04-01 00:47:00,
2013-03-31 21:17:00,55.6,53.3,29.82,South,185,0.0,0.0,92,0.00,SCT,,0.80,WeatherDisplay:10.37,2013-04-01 01:17:00,
2013-03-31 21:32:00,55.4,53.1,29.82,South,185,0.0,0.0,92,0.00,SCT,,0.80,WeatherDisplay:10.37,2013-04-01 01:32:00,
2013-03-31 21:47:00,55.4,53.1,29.82,South,185,0.0,0.0,92,0.00,SCT,,0.80,WeatherDisplay:10.37,2013-04-01 01:47:00,
2013-03-31 22:02:00,55.3,53.0,29.82,South,185,0.0,0.0,92,0.00,SCT,,0.80,WeatherDisplay:10.37,2013-04-01 02:02:00,
2013-03-31 22:17:00,55.3,53.0,29.82,South,185,0.0,1.0,92,0.00,SCT,,0.80,WeatherDisplay:10.37,2013-04-01 02:17:00,
2013-03-31 22:32:00,55.1,52.8,29.82,South,185,0.0,1.0,92,0.00,SCT,,0.80,WeatherDisplay:10.37,2013-04-01 02:32:00,
2013-03-31 22:47:00,54.9,52.6,29.82,South,185,0.0,0.0,92,0.00,SCT,,0.80,WeatherDisplay:10.37,2013-04-01 02:47:00,
2013-03-31 23:02:00,54.7,52.4,29.82,South,185,0.0,0.0,92,0.00,SCT,,0.80,WeatherDisplay:10.37,2013-04-01 03:02:00,
2013-03-31 23:17:00,54.5,52.2,29.83,South,185,0.0,0.0,92,0.00,SCT,,0.80,WeatherDisplay:10.37,2013-04-01 03:17:00,
2013-03-31 23:32:00,54.4,52.1,29.82,South,185,0.0,0.0,92,0.00,SCT,,0.80,WeatherDisplay:10.37,2013-04-01 03:32:00,
2013-03-31 23:47:00,54.2,51.9,29.82,South,185,0.0,0.0,92,0.00,SCT,,0.80,WeatherDisplay:10.37,2013-04-01 03:47:00,